Miscellaneous Local Product
Issued by NWS Hastings, NE

Home | Current Version | Previous Version | Graphics & Text | Print | Product List | Glossary On
Versions: 1 2 3 4 5 6 7 8 9 10 11 12 13 14 15 16 17 18 19 20 21 22 23 24 25 26 27 28 29 30 31 32 33 34 35 36 37 38 39 40 41 42 43 44 45 46 47 48 49 50
000
AXUS43 KGID 010402
MISGRI

GID CWA HOURLY WEATHER ROUNDUP
NATIONAL WEATHER SERVICE HASTINGS NE
1000 PM CST SAT JAN 31 2015

NOTE: "FAIR" INDICATES FEW OR NO CLOUDS BELOW 12,000 FEET WITH NO
SIGNIFICANT WEATHER AND/OR OBSTRUCTIONS TO VISIBILITY.

...SOUTH CENTRAL NEBRASKA...

CITY           SKY/WX    TMP DP  RH WIND       PRES   REMARKS
GRAND ISLAND   LGT SNOW  31  30  96 N8        29.86R FOG     WCI  23
HASTINGS       LGT SNOW  31  30  96 N7        29.82S VSB 1   WCI  24
KEARNEY        CLOUDY    30  28  93 N12       29.84S WCI  21
ORD            LGT SNOW  25  21  85 N17       29.89S FOG     WCI  12
YORK           LGT SNOW  32  32 100 E5        29.85S WCI  27
AURORA         LGT SNOW  32  32 100 NE6       29.84S WCI  26
LEXINGTON      LGT SNOW  29  27  94 N16G24    29.86R WCI  17
HOLDREGE       LGT SNOW  31  31  96 N10       29.82S WCI  23
HEBRON         LGT SNOW  32  31  96 CALM      29.83S

...NEBRASKA PANHANDLE...

CITY           SKY/WX    TMP DP  RH WIND       PRES   REMARKS
CHADRON        LGT SNOW  21  19  92 N13       30.05R VSB 3/4 WCI   9
ALLIANCE       CLOUDY    19  15  84 N17       29.96R WCI   4
SCOTTSBLUFF    CLOUDY    26  24  92 MISG      29.97R
SIDNEY         CLOUDY    24  21  88 N16       29.91R WCI  11

...WESTERN AND NORTH CENTRAL NEBRASKA...

CITY           SKY/WX    TMP DP  RH WIND       PRES   REMARKS
VALENTINE      LGT SNOW  16  12  84 N14       30.04R VSB 3/4 WCI   2
AINSWORTH      LGT SNOW  18  16  90 N17       29.99R WCI   3
ONEILL         LGT SNOW  25  23  94 N16G22    29.96R WCI  12
BROKEN BOW     LGT SNOW  22  18  85 N25       29.89R FOG     WCI   5
IMPERIAL       LGT SNOW  25  21  85 N20       29.90R VSB 3/4 WCI  11
NORTH PLATTE   LGT SNOW  22  18  85 N20G30    29.91R FOG     WCI   7
MCCOOK         LGT SNOW  31  28  89 N17G28    29.85R VSB 1   WCI  19

...EASTERN NEBRASKA...

CITY           SKY/WX    TMP DP  RH WIND       PRES   REMARKS
NORFOLK        LGT SNOW  32  31  96 N9        29.90R VSB 1   WCI  24
SO SIOUX CITY  LGT SNOW  31  29  92 NE16      29.94F VSB 1   WCI  20
TEKAMAH        LGT SNOW  33  32  96 NE7       29.91F VSB 1   WCI  27
ALBION         LGT SNOW  31  28  90 N9        29.88S WCI  23
OMAHA EPPLEY   LGT SNOW  33  32  96 E3        29.90F VSB 1
OFFUTT AFB     LGT SNOW  32  32 100 E7        29.89F FOG     WCI  26
MILLARD        LGT SNOW  33  32  96 CALM      29.89F
LINCOLN        LGT SNOW  33  31  92 E5        29.87F VSB 1   WCI  29
NEBRASKA CITY  LGT SNOW  32  32 100 SE9       29.88F WCI  25
BEATRICE       LGT SNOW  32  32 100 SE3       29.84F
FALLS CITY     LGT SNOW  32  32 100 SE7       29.88F VSB 1   WCI  26

...NORTHERN KANSAS...

CITY           SKY/WX    TMP DP  RH WIND       PRES   REMARKS
GOODLAND       FLURRIES  31  31 100 N13       29.83R WCI  21
HILL CITY      LGT SNOW  33  31  92 N14       29.80R FOG     WCI  23
NORTON         LGT SNOW  34  30  86 N9        29.80  WCI  26
PHILLIPSBURG   LGT SNOW  36  36 100 N8        29.81R WCI  29
SMITH CENTER   MIX PCPN  32  32 100 N8        29.80S WCI  25
BELOIT         CLOUDY    37  36  93 CALM      29.78F
HAYS           CLOUDY    39  34  81 SW3       29.76S
RUSSELL        LGT RAIN  39  39 100 S7        29.75F WCI  34
CONCORDIA      LGT RAIN  35  35 100 S5        29.80F WCI  31
SALINA         LGT RAIN  40  37  89 S9        29.80F WCI  34
TOPEKA         LGT SNOW  33  32  96 SE7       29.89F FOG     WCI  27



USA.gov is the U.S. government's official web portal to all federal, state and local government web resources and services.